User: anonymous   Login
Location: Unspecified
(0.0000°N, 0.0000°E)
Time: 01:28:49
(UTC+00:00)
Language:

Kosmos-1226 - Orbit

View from above orbital plane
View from above orbital plane
View from above satellite
View from above satellite

Ground track
Ground track

The orbit data is extracted from the following two-line orbital elements,

1 12091U 80099A   18016.78343139 +.00000020 +00000-0 +47259-5 0  9997
2 12091 082.9425 119.4830 0033193 351.6856 120.1415 13.74485513860531
Epoch (UTC): 16 January 2018 18:48:08
Eccentricity: 0.0033193
inclination: 82.9425°
perigee height: 959 km
apogee height: 1008 km
right ascension of ascending node: 119.4830°
argument of perigee: 351.6856°
revolutions per day: 13.74485513
mean anomaly at epoch: 120.1415°
orbit number at epoch: 86053

The dashed part of the orbit path shows where the satellite is in the earth's shadow,  

DLR